Location: Tehachapi Municipal Airport
(35.1300°N, 118.4400°W)
Time: 00:31:05
(UTC-08:00)

BREEZE M DEB (TANK) - Visible Passes

Search period start: 23 January 2017 00:00
Search period end: 02 February 2017 00:00
Orbit: 289 x 11999 km, 49.5° (Epoch: 21 January)

Date Brightness Start Highest point End Pass type
(mag) Time Alt. Az. Time Alt. Az. Time Alt. Az.
23 Jan 5.1 05:49:34 10° SW 06:12:35 65° SE 06:18:16 10° ENE visible
24 Jan 5.9 04:58:05 10° SSW 05:24:31 49° SE 05:31:19 10° ENE visible
25 Jan 6.6 04:07:27 10° SSW 04:35:55 38° SE 04:44:03 10° ENE visible
26 Jan 7.2 03:18:16 10° S 03:46:48 29° SE 03:56:17 10° E visible
27 Jan 7.5 02:31:20 10° S 02:57:12 22° SE 03:07:39 10° E visible
28 Jan 7.8 01:48:16 10° SSE 02:07:09 16° SE 02:17:10 10° ESE visible
28 Jan 4.5 05:56:43 10° SW 06:18:34 87° NW 06:23:51 10° NE visible
29 Jan 5.2 05:03:51 10° SW 05:30:47 70° SE 05:37:01 10° ENE visible
30 Jan 5.9 04:11:25 10° SSW 04:42:29 54° SE 04:49:57 10° ENE visible
31 Jan 6.5 03:19:57 10° SSW 03:53:40 42° SE 04:02:35 10° ENE visible
01 Feb 7.1 02:30:01 10° S 03:04:17 33° SE 03:14:45 10° E visible
